Winnipeg, Manitoba

9:59 AM CST on December 14, 2017 (GMT -0600)
Winnipeg International Airport

Weather History for CYWG - January, 2013

Change the Weather History Date:

Sunday, January 27, 2013

  Actual Average Record
Temperature  
Mean Temperature 6 °F -  
Max Temperature 16 °F 14 °F 37 °F (2016)
Min Temperature -3 °F -6 °F -25 °F (2014)
Degree Days  
Heating Degree Days 58    
Moisture  
Dew Point 2 °F    
Average Humidity 84    
Maximum Humidity 92    
Minimum Humidity 71    
Precipitation  
Precipitation 0.00 in 0.02 in - ()
Sea Level Pressure  
Sea Level Pressure 30.00 in    
Wind  
Wind Speed 5 mph ()    
Max Wind Speed 13 mph    
Max Gust Speed -    
Visibility 13.5 miles    
Events      
Averages and records for this station are not official NWS values.
T = Trace of Precipitation, MM = Missing Value Source: Averaged Metar Reports

Daily Weather History Graph

Daily Weather History Graph

Search for Another Location

Airport or City:

Trip Planner

Search our weather history database for the weather conditions in past years. The results will help you decide how hot, cold, wet, or windy it might be!

Date:

Astronomy

Jan. 27, 2013 Rise Set
Actual Time 8:08 AM CST 5:15 PM CST
Civil Twilight 7:33 AM CST 5:51 PM CST
Nautical Twilight 6:53 AM CST 6:30 PM CST
Astronomical Twilight 6:16 AM CST 7:08 PM CST
Moon 6:21 PM CST (1/27) 7:53 AM CST (1/27)
Length of Visible Light 10h 17m
Length of Day
9h 07m
Full, 100% of the Moon is Illuminated
Jan 27
Full
Feb 3
Last Quarter
Feb 10
New
Feb 17
First Quarter
Feb 25
Full

Hourly Weather History & Observations

Time (CST) Temp. Windchill Dew Point Humidity Pressure Visibility Wind Dir Wind Speed Gust Speed Precip Events Conditions
12:00 AM -0 °F - -4 °F 73% 30.09 in 9 mi Calm Calm - -  
12:00 AM 1.4 °F -9.9 °F -2.2 °F 85% 30.09 in 15.0 mi SSE 5.8 mph - N/A   Clear
1:00 AM 1.4 °F -12.5 °F -0.4 °F 92% 30.08 in 15.0 mi SSE 8.1 mph - N/A   Partly Cloudy
2:00 AM 1.4 °F -13.5 °F -2.2 °F 85% 30.06 in 15.0 mi South 9.2 mph - N/A   Clear
3:00 AM 1.4 °F -11.3 °F -2.2 °F 85% 30.07 in 15.0 mi SSE 6.9 mph - N/A   Clear
4:00 AM 1.4 °F -6.2 °F -2.2 °F 85% 30.06 in 15.0 mi SE 3.5 mph - N/A   Clear
5:00 AM 1.4 °F -8.3 °F -2.2 °F 85% 30.05 in 15.0 mi SE 4.6 mph - N/A   Clear
6:00 AM 0 °F - -5 °F 71% 30.04 in 7 mi Calm Calm - -  
6:00 AM 1.4 °F -8.3 °F -2.2 °F 85% 30.04 in 15.0 mi SE 4.6 mph - N/A   Clear
7:00 AM -0.4 °F -10.4 °F -4.0 °F 85% 30.04 in 15.0 mi SE 4.6 mph - N/A   Clear
8:00 AM -0.4 °F -8.3 °F -4.0 °F 85% 30.04 in 12.0 mi East 3.5 mph - N/A   Scattered Clouds
9:00 AM -0.4 °F -12.0 °F -4.0 °F 85% 30.05 in 15.0 mi ENE 5.8 mph - N/A   Mostly Cloudy
10:00 AM 6.8 °F -3.5 °F 5.0 °F 92% 30.03 in 15.0 mi SE 5.8 mph - N/A   Mostly Cloudy
11:00 AM 10.4 °F 2.2 °F 6.8 °F 85% 30.03 in 15.0 mi East 4.6 mph - N/A   Mostly Cloudy
12:00 PM 12 °F - 8 °F 79% 30.02 in 9 mi Calm Calm - -  
12:00 PM 12.2 °F 4.3 °F 8.6 °F 85% 30.02 in 12.0 mi East 4.6 mph - N/A   Mostly Cloudy
1:00 PM 14.0 °F 5.1 °F 6.8 °F 73% 29.99 in 12.0 mi ENE 5.8 mph - N/A   Mostly Cloudy
2:00 PM 14.0 °F -0.2 °F 8.6 °F 79% 29.96 in 12.0 mi NNE 12.7 mph - N/A   Mostly Cloudy
3:00 PM 14.0 °F 2.0 °F 8.6 °F 79% 29.96 in 15.0 mi NE 9.2 mph - N/A   Mostly Cloudy
4:00 PM 14.0 °F 6.5 °F 8.6 °F 79% 29.95 in 15.0 mi ENE 4.6 mph - N/A   Mostly Cloudy
5:00 PM 10.4 °F -2.4 °F 6.8 °F 85% 29.94 in 15.0 mi NE 9.2 mph - N/A   Scattered Clouds
6:00 PM 7 °F - 4 °F 84% 29.93 in 9 mi Calm Calm - -  
6:00 PM 6.8 °F -4.8 °F 3.2 °F 85% 29.93 in 15.0 mi NE 6.9 mph - N/A   Scattered Clouds
7:00 PM 5.0 °F -2.1 °F 1.4 °F 85% 29.92 in 15.0 mi ENE 3.5 mph - N/A   Clear
8:00 PM 5.0 °F -4.1 °F 3.2 °F 92% 29.92 in 15.0 mi ENE 4.6 mph - N/A   Clear
9:00 PM 12.2 °F -1.0 °F 8.6 °F 85% 29.89 in 15.0 mi ESE 10.4 mph - N/A   Clear
10:00 PM 12.2 °F - 8.6 °F 85% 29.89 in 15.0 mi Calm Calm - N/A   Scattered Clouds
11:00 PM 3.2 °F -9.1 °F -0.4 °F 85% 29.88 in 12.0 mi WNW 6.9 mph - N/A   Mostly Cloudy